TimePST,TemperatureF,Dew PointF,Humidity,Sea Level PressureIn,VisibilityMPH,Wind Direction,Wind SpeedMPH,Gust SpeedMPH,PrecipitationIn,Events,Conditions,WindDirDegrees,DateUTC
12:53 AM,55.9,50.0,80,30.08,10.0,West,9.2,-,N/A,,Partly Cloudy,270,2012-11-30 08:53:00
1:07 AM,53.6,50.0,88,30.12,10.0,West,8.1,54.1,N/A,,Mostly Cloudy,270,2012-11-30 09:07:00
1:53 AM,57.0,51.1,81,30.08,10.0,WSW,9.2,-,N/A,,Overcast,250,2012-11-30 09:53:00
2:08 AM,55.4,51.8,88,30.12,10.0,West,6.9,-,N/A,,Mostly Cloudy,260,2012-11-30 10:08:00
2:18 AM,55.4,50.0,82,30.12,10.0,West,8.1,-,N/A,,Mostly Cloudy,280,2012-11-30 10:18:00
2:25 AM,55.4,51.8,88,30.12,10.0,West,9.2,-,N/A,,Mostly Cloudy,270,2012-11-30 10:25:00
2:53 AM,55.0,51.1,86,30.07,10.0,WSW,9.2,-,N/A,,Partly Cloudy,250,2012-11-30 10:53:00
3:53 AM,55.9,51.1,84,30.06,10.0,WNW,3.5,-,N/A,,Partly Cloudy,300,2012-11-30 11:53:00
4:53 AM,55.0,51.1,86,30.05,10.0,NW,5.8,-,N/A,,Clear,320,2012-11-30 12:53:00
5:53 AM,55.9,51.1,84,30.06,10.0,NNW,8.1,-,N/A,,Partly Cloudy,340,2012-11-30 13:53:00
6:53 AM,55.9,51.1,84,30.07,10.0,NW,6.9,-,N/A,,Partly Cloudy,320,2012-11-30 14:53:00
7:53 AM,57.9,53.1,84,30.08,10.0,North,5.8,-,N/A,,Scattered Clouds,360,2012-11-30 15:53:00
8:32 AM,60.8,53.6,77,30.10,10.0,SW,19.6,27.6,N/A,,Partly Cloudy,220,2012-11-30 16:32:00
8:53 AM,62.1,53.1,72,30.03,10.0,SW,20.7,32.2,N/A,,Clear,230,2012-11-30 16:53:00
9:53 AM,61.0,48.9,64,30.03,2.5,SW,39.1,49.5,N/A,,Haze,220,2012-11-30 17:53:00
10:04 AM,60.8,48.2,63,30.07,4.0,SW,42.6,48.3,N/A,,Haze,230,2012-11-30 18:04:00
10:53 AM,62.1,51.1,67,30.02,10.0,SW,34.5,46.0,N/A,,Clear,220,2012-11-30 18:53:00
11:53 AM,62.1,53.1,72,30.03,10.0,SW,39.1,-,N/A,,Clear,220,2012-11-30 19:53:00
12:41 PM,62.6,53.6,72,30.06,9.0,SW,32.2,39.1,0.00,Rain,Light Rain,220,2012-11-30 20:41:00
12:48 PM,62.6,53.6,72,30.07,10.0,SW,33.4,38.0,0.00,,Scattered Clouds,220,2012-11-30 20:48:00
12:53 PM,64.0,53.1,67,30.03,10.0,SW,33.4,38.0,0.00,,Partly Cloudy,220,2012-11-30 20:53:00
1:53 PM,64.9,50.0,58,30.03,10.0,SW,35.7,41.4,N/A,,Clear,220,2012-11-30 21:53:00
2:53 PM,63.0,51.1,65,30.02,10.0,SSW,34.5,44.9,N/A,,Clear,210,2012-11-30 22:53:00
3:53 PM,61.0,48.9,64,30.05,10.0,SW,26.5,35.7,N/A,,Clear,230,2012-11-30 23:53:00
4:53 PM,59.0,46.9,64,30.04,10.0,SSW,20.7,-,N/A,,Clear,210,2012-12-01 00:53:00
5:53 PM,57.9,44.1,60,30.03,10.0,SW,18.4,-,N/A,,Clear,230,2012-12-01 01:53:00
6:53 PM,55.0,48.9,80,30.09,10.0,West,15.0,-,N/A,,Clear,270,2012-12-01 02:53:00
7:53 PM,57.2,46.4,67,30.10,10.0,WSW,15.0,-,N/A,,Clear,240,2012-12-01 03:53:00
8:53 PM,55.9,48.0,75,30.06,10.0,WSW,11.5,-,N/A,,Clear,240,2012-12-01 04:53:00
9:53 PM,55.4,48.2,77,30.11,10.0,West,4.6,-,N/A,,Clear,260,2012-12-01 05:53:00
10:53 PM,55.9,46.9,72,30.08,10.0,West,6.9,16.1,N/A,,Clear,260,2012-12-01 06:53:00
11:53 PM,55.0,48.0,77,30.08,10.0,SSW,11.5,-,N/A,,Clear,200,2012-12-01 07:53:00